Arctic Village, AK

12:36 AM AKST on February 06, 2016 (GMT -0900)
Arctic Village

Weather History for PARC - March, 2013

Change the Weather History Date:

Thursday, March 14, 2013

  Actual Average Record
Temperature  
Mean Temperature -12 °F -  
Max Temperature 3 °F 14 °F 33 °F (1989)
Min Temperature -27 °F -18 °F -41 °F (2007)
Degree Days  
Heating Degree Days 77    
Moisture  
Dew Point -21 °F    
Average Humidity 44    
Maximum Humidity 100    
Minimum Humidity 32    
Precipitation  
Precipitation 0.00 in - - ()
Sea Level Pressure  
Sea Level Pressure 30.42 in    
Wind  
Wind Speed 3 mph (ENE)    
Max Wind Speed 13 mph    
Max Gust Speed -    
Visibility 10 miles    
Events      
Averages and records for this station are not official NWS values.
T = Trace of Precipitation, MM = Missing Value Source: NWS Daily Summary

Daily Weather History Graph

Daily Weather History Graph

Search for Another Location

Airport or City:

Trip Planner

Search our weather history database for the weather conditions in past years. The results will help you decide how hot, cold, wet, or windy it might be!

Date:

Astronomy

Mar. 14, 2013 Rise Set
Actual Time 8:05 AM AKDT 7:39 PM AKDT
Civil Twilight 7:09 AM AKDT 8:35 PM AKDT
Nautical Twilight 6:02 AM AKDT 9:43 PM AKDT
Astronomical Twilight 4:44 AM AKDT 11:02 PM AKDT
Moon 7:41 AM AKDT (3/14) No Moon Set
Length of Visible Light 13h 25m
Length of Day
11h 34m
Waxing Crescent, 10% of the Moon is Illuminated
Mar 14
Waxing Crescent
Mar 19
First Quarter
Mar 27
Full
Apr 2
Last Quarter
Apr 10
New

Hourly Weather History & Observations

Time (AKDT) Temp. Windchill Dew Point Humidity Pressure Visibility Wind Dir Wind Speed Gust Speed Precip Events Conditions
12:16 AM -20.2 °F - - N/A% 30.42 in 10.0 mi Calm Calm - N/A   Clear
12:36 AM -20.2 °F -37.3 °F - N/A% 30.42 in 10.0 mi NE 6.9 mph - N/A   Clear
12:56 AM -20.2 °F - - N/A% 30.43 in 10.0 mi Calm Calm - N/A   Clear
1:16 AM -20.2 °F - - N/A% 30.44 in 10.0 mi Calm Calm - N/A   Clear
1:36 AM -23.8 °F -37.7 °F - N/A% 30.44 in 10.0 mi North 4.6 mph - N/A   Clear
1:56 AM -20.2 °F - - N/A% 30.44 in 10.0 mi Calm Calm - N/A   Clear
2:16 AM -22.0 °F -35.6 °F - N/A% 30.43 in 10.0 mi NE 4.6 mph - N/A   Clear
2:36 AM -22.0 °F -33.0 °F - N/A% 30.44 in 10.0 mi ENE 3.5 mph - N/A   Clear
2:56 AM -27.4 °F - - N/A% 30.44 in 10.0 mi Calm Calm - N/A   Clear
3:16 AM -25.6 °F - - N/A% 30.44 in 10.0 mi Calm Calm - N/A   Clear
3:36 AM -27.4 °F - - N/A% 30.44 in 10.0 mi Calm Calm - N/A   Clear
3:56 AM -25.6 °F - - N/A% 30.44 in 10.0 mi Calm Calm - N/A   Clear
4:16 AM -25.6 °F -37.1 °F - N/A% 30.43 in 10.0 mi SE 3.5 mph - N/A   Clear
4:36 AM -25.6 °F - - N/A% 30.43 in 10.0 mi Calm Calm - N/A   Clear
4:56 AM -25.6 °F - - N/A% 30.42 in 10.0 mi Calm Calm - N/A   Clear
5:16 AM -25.6 °F -37.1 °F - N/A% 30.42 in 10.0 mi East 3.5 mph - N/A   Clear
5:36 AM -23.8 °F -37.7 °F - N/A% 30.42 in 10.0 mi East 4.6 mph - N/A   Clear
5:56 AM -22.0 °F -43.6 °F - N/A% 30.41 in 10.0 mi ENE 10.4 mph - N/A   Clear
6:16 AM -20.2 °F -33.5 °F -20.2 °F 100% 30.41 in 10.0 mi NE 4.6 mph - N/A   Clear
6:36 AM -25.6 °F - - N/A% 30.42 in 10.0 mi Calm Calm - N/A   Clear
6:56 AM -25.6 °F -39.8 °F - N/A% 30.42 in 10.0 mi NNE 4.6 mph - N/A   Clear
7:16 AM -23.8 °F -35.0 °F - N/A% 30.43 in 10.0 mi NNE 3.5 mph - N/A   Clear
7:36 AM -23.8 °F - - N/A% 30.43 in 10.0 mi Calm Calm - N/A   Clear
7:56 AM -25.6 °F - - N/A% 30.43 in 10.0 mi Calm Calm - N/A   Clear
8:16 AM -23.8 °F - - N/A% 30.44 in 10.0 mi Calm Calm - N/A   Clear
8:36 AM -23.8 °F - - N/A% 30.43 in 10.0 mi Calm Calm - N/A   Clear
8:56 AM -25.6 °F -50.2 °F - N/A% 30.42 in 10.0 mi NNE 12.7 mph - N/A   Clear
9:16 AM -23.8 °F -46.9 °F - N/A% 30.42 in 10.0 mi NE 11.5 mph - N/A   Clear
9:36 AM -20.2 °F -37.3 °F - N/A% 30.42 in 10.0 mi ENE 6.9 mph - N/A   Clear
9:56 AM -20.2 °F -30.9 °F - N/A% 30.43 in 10.0 mi ENE 3.5 mph - N/A   Clear
10:16 AM -16.6 °F - - N/A% 30.44 in 10.0 mi Calm Calm - N/A   Clear
10:36 AM -16.6 °F - - N/A% 30.43 in 10.0 mi Calm Calm - N/A   Clear
10:56 AM -14.8 °F - - N/A% 30.44 in 10.0 mi Calm Calm - N/A   Clear
11:16 AM -13.0 °F -27.0 °F -27.4 °F 49% 30.44 in 10.0 mi NE 5.8 mph - N/A   Clear
11:36 AM -11.2 °F -30.1 °F -25.6 °F 49% 30.44 in 10.0 mi NNE 10.4 mph - N/A   Clear
11:56 AM -11.2 °F -27.8 °F -23.8 °F 54% 30.44 in 10.0 mi NE 8.1 mph - N/A   Clear
12:16 PM -9.4 °F -22.7 °F -20.2 °F 59% 30.44 in 10.0 mi NE 5.8 mph - N/A   Clear
12:36 PM -7.6 °F -18.8 °F -20.2 °F 54% 30.45 in 10.0 mi ENE 4.6 mph - N/A   Clear
12:56 PM -5.8 °F -14.5 °F -18.4 °F 55% 30.45 in 10.0 mi ESE 3.5 mph - N/A   Clear
1:16 PM -5.8 °F - -25.6 °F 38% 30.45 in 10.0 mi Calm Calm - N/A   Clear
1:36 PM -5.8 °F -14.5 °F -18.4 °F 55% 30.45 in 10.0 mi East 3.5 mph - N/A   Clear
1:56 PM -2.2 °F -14.2 °F -20.2 °F 42% 30.45 in 10.0 mi ENE 5.8 mph - N/A   Clear
2:16 PM -2.2 °F - -20.2 °F 42% 30.46 in 10.0 mi Calm Calm - N/A   Clear
2:36 PM -0.4 °F - -20.2 °F 39% 30.45 in 10.0 mi Calm Calm - N/A   Clear
2:56 PM 1.4 °F -6.2 °F -20.2 °F 36% 30.44 in 10.0 mi ENE 3.5 mph - N/A   Clear
3:16 PM 1.4 °F - -20.2 °F 36% 30.44 in 10.0 mi Calm Calm - N/A   Clear
3:36 PM 1.4 °F - -20.2 °F 36% 30.43 in 10.0 mi Calm Calm - N/A   Clear
3:56 PM 1.4 °F -8.3 °F -18.4 °F 39% 30.43 in 10.0 mi East 4.6 mph - N/A   Clear
4:16 PM 1.4 °F -6.2 °F -20.2 °F 36% 30.42 in 10.0 mi ENE 3.5 mph - N/A   Clear
4:36 PM 1.4 °F - -18.4 °F 39% 30.41 in 10.0 mi Calm Calm - N/A   Clear
4:56 PM 1.4 °F - -18.4 °F 39% 30.41 in 10.0 mi Calm Calm - N/A   Clear
5:16 PM 3.2 °F -6.2 °F -18.4 °F 36% 30.41 in 10.0 mi ENE 4.6 mph - N/A   Clear
5:36 PM 1.4 °F -8.3 °F -20.2 °F 36% 30.40 in 10.0 mi ESE 4.6 mph - N/A   Clear
5:56 PM 1.4 °F -6.2 °F -20.2 °F 36% 30.40 in 10.0 mi ESE 3.5 mph - N/A   Clear
6:16 PM 1.4 °F -11.3 °F -18.4 °F 39% 30.39 in 10.0 mi ENE 6.9 mph - N/A   Clear
6:36 PM 1.4 °F -11.3 °F -18.4 °F 39% 30.39 in 10.0 mi ENE 6.9 mph - N/A   Clear
6:56 PM 1.4 °F -11.3 °F -18.4 °F 39% 30.38 in 10.0 mi East 6.9 mph - N/A   Clear
7:16 PM -0.4 °F -13.4 °F -22.0 °F 36% 30.38 in 10.0 mi ENE 6.9 mph - N/A   Clear
7:36 PM -0.4 °F -8.3 °F -18.4 °F 43% 30.39 in 10.0 mi ENE 3.5 mph - N/A   Clear
7:56 PM -2.2 °F -12.5 °F -23.8 °F 35% 30.39 in 10.0 mi NE 4.6 mph - N/A   Mostly Cloudy
8:16 PM -4.0 °F -17.8 °F -20.2 °F 46% 30.38 in 10.0 mi NE 6.9 mph - N/A   Scattered Clouds
8:36 PM -5.8 °F -22.4 °F -22.0 °F 46% 30.38 in 10.0 mi NE 9.2 mph - N/A   Clear
8:56 PM -4.0 °F -22.1 °F -23.8 °F 38% 30.38 in 10.0 mi ENE 11.5 mph - N/A   Clear
9:16 PM -2.2 °F -18.0 °F -14.8 °F 55% 30.38 in 10.0 mi ENE 9.2 mph - N/A   Clear
9:36 PM -2.2 °F -18.0 °F -25.6 °F 32% 30.37 in 10.0 mi NE 9.2 mph - N/A   Clear
9:56 PM -4.0 °F -20.2 °F -20.2 °F 46% 30.37 in 10.0 mi NE 9.2 mph - N/A   Clear
10:16 PM -5.8 °F -23.4 °F -23.8 °F 42% 30.37 in 10.0 mi ENE 10.4 mph - N/A   Clear
10:36 PM -7.6 °F -23.4 °F -23.8 °F 45% 30.37 in 10.0 mi NE 8.1 mph - N/A   Clear
10:56 PM -9.4 °F -27.9 °F -25.6 °F 45% 30.36 in 10.0 mi NE 10.4 mph - N/A   Clear
11:16 PM -11.2 °F -27.8 °F -29.2 °F 41% 30.37 in 10.0 mi East 8.1 mph - N/A   Clear
11:36 PM -7.6 °F -25.7 °F - N/A% 30.37 in 10.0 mi NE 10.4 mph - N/A   Clear
11:56 PM -11.2 °F - - N/A% 30.37 in 10.0 mi Calm Calm - N/A   Mostly Cloudy